CZ-6A DEB

Satellite information

Favourite Embed

Satellite Type and Status

DEBRISIN ORBIT

Key statistics

Satellite CZ-6A DEB at a glance.

Uptime

334

Days in orbit

Revolutions

≈ 14.6

Per day

Orbit

LEO

Low Earth Orbit

Inclination

89.1

Latest

Satellite identification and parameters

Extended collection of information and parameters for CZ-6A DEB.

Object identification

Identified? True

Debris? True

Object name: CZ-6A DEB

International designator: 2024-140ZH

Object number (NORAD): 61451

Object ID (CCSDS): 61451

Country: PEOPLES REPUBLIC OF CHINA (PRC)

Current information (Y/N): Y

RCS size: SMALL

Orbital parameters

Period: 98.66 minutes

Inclination: 89.0508 deg

SMA: 7072.726 km

Apoapsis: 779.913 km

Periapsis: 609.269 km

RAAN: 313.4532 deg

Eccentricy: 0.0120635

Argument of periapsis: 8.6806 deg

Mean anomaly: 351.6452 deg

Mean motion: 14.59561864 rev/day

Mean motion (dot): 0.00003267 rev/day2

B* drag term: 0.0006176 1/REarth

Two-line elements (TLE)

Creation date: July 5, 2025, 11:06 p.m.

Reference frame: TEME

Reference center: EARTH

Epoch: July 5, 2025, 8:41 p.m. UTC

TLE line 0: 0 CZ-6A DEB

TLE line 1: 1 61451U 24140ZH 25186.86207490 .00003267 00000-0 61760-3 0 9997

TLE line 2: 2 61451 89.0508 313.4532 0120635 8.6806 351.6452 14.59561864 45223

Live tracking on map

Real-time ground track for satellite CZ-6A DEB.

In-orbit conjunctions

A list of the most updated potential collisions computed for object CZ-6A DEB.

Target Orbit TCA Probability of collision Miss distance Type
FENGYUN 1C DEB SSO 2025-05-21 21:09:28 0.0003811337 19.0 (m) DEBRIS
COSMOS 2535 DEB SSO 2025-05-18 01:53:34 0.0004745051 78.0 (m) DEBRIS
FENGYUN 1C DEB SSO 2025-03-02 17:21:33 0.0001800125 304.0 (m) DEBRIS
NOAA 16 DEB SSO 2024-12-01 06:59:09 0.0007130828 138.0 (m) DEBRIS
COSMOS 2251 DEB LEO 2024-11-16 14:25:50 0.0002905361 311.0 (m) DEBRIS

Associated space launch

18 Low Earth Orbit communication satellites with Ku, Q and V band payloads for the G60 constellation operated by Shanghai Spacecom Satellite Technology (SSST) with funding backed by the Shanghai local government. Initial constellation will consist of 1296 satellites by 2027 with long term plans to expand it to 12000 satellites.

CZ-6A DEB was lifted into orbit during the mission ‘Long March 6A | G60 Polar Group 01’, on board a Long March 6A space rocket.

The launch took place on Aug. 6, 2024, 6:42 a.m. from Launch Complex 9A.

For more information about the launch, click the button.

Launch to space Long March 6A | G60 Polar Group 01
Long March 6A | G60 Polar Group 01

Agency: N/A

Status: Launch Successful

Launch date: Aug. 6, 2024, 6:42 a.m. UTC

Rocket: Long March 6A

Launch pad: Launch Complex 9A

Location: Taiyuan Satellite Launch Center, People's Republic of China

...

Latest news about this satellite

News about space launch
Brightness of first Chinese broadband constellation satellites alarms astronomers

The first satellites of a Chinese broadband constellation are significantly brighter than those of Western systems, posing a new challenge for astronomers.

News about space launch
Chinese rocket stage breaks up into cloud of more than 700 pieces of space debris

HELSINKI — A Chinese Long March 6A rocket’s upper stage has fragmented into a cloud of over 700 pieces of space debris, adding to concerns about long-term orbital safety. China […]

News about space launch
China's Thousand Sails Megaconstellation Kicks Off with Dangerous Debris Field

China's Thousand Sails Megaconstellation Kicks Off with Dangerous Debris Field


Newsletter sign-up

Weekly statistics, charts and insights to help you stay on top of the space industry.